Hourly Weather Roundup
Issued by NWS Central Illinois

Home | Current Version | Previous Version | Text Only | Print | Product List | Glossary On
Versions: 1 2 3 4 5 6 7 8 9 10 11 12 13 14 15 16 17 18 19 20 21 22 23 24 25 26 27 28 29 30 31 32 33 34 35 36 37 38 39 40 41 42 43 44 45 46 47 48 49 50
000
NZUS43 KILX 230010
HWRILX

AREA WEATHER ROUNDUP
NATIONAL WEATHER SERVICE, LINCOLN IL
700 PM CDT FRI JUL 22 2016


CITY           SKY/WX    TMP DP  RH WIND       PRES   REMARKS
BLOOMINGTON    SUNNY     84  76  76 SW5       30.01F HX  93
6HR MIN TEMP:  82; 6HR MAX TEMP:  86;

CHAMPAIGN      SUNNY     83  74  74 W6        30.01R HX  89
6HR MIN TEMP:  83; 6HR MAX TEMP:  86;

DANVILLE       SUNNY     84  76  76 NW3       29.98S HX  92
6HR MIN TEMP:  83; 6HR MAX TEMP:  86;

DECATUR        SUNNY     86  73  65 E3        30.00F HX  93
6HR MIN TEMP:  84; 6HR MAX TEMP:  87;

EFFINGHAM      SUNNY     86  74  66 CALM      30.01S HX  93
FLORA          SUNNY     85  75  72 CALM      30.00R HX  94
6HR MIN TEMP:  80; 6HR MAX TEMP:  87;

GALESBURG      SUNNY     85  75  73 S3        29.99S HX  94
JACKSONVILLE   SUNNY     84  77  79 SE5       29.99F HX  93
6HR MIN TEMP:  81; 6HR MAX TEMP:  87;

LACON          SUNNY     85  76  73 CALM      29.97F HX  94
6HR MIN TEMP:  81; 6HR MAX TEMP:  87;

LAWRENCEVILLE  SUNNY     83  75  77 VRB3      29.99S HX  90
6HR MIN TEMP:  80; 6HR MAX TEMP:  85; 6HR PCP:  0.01;

LITCHFIELD     SUNNY     83  72  69 CALM      30.01S HX  89
$$


CITY           SKY/WX    TMP DP  RH WIND       PRES   REMARKS
LINCOLN        SUNNY     86  75  69 S3        29.99F HX  94
6HR MIN TEMP:  83; 6HR MAX TEMP:  87;

MACOMB         SUNNY     85  77  76 S3        30.01S HX  96
MATTOON        MOSUNNY   85  72  65 CALM      29.99S HX  91
6HR MIN TEMP:  84; 6HR MAX TEMP:  87;

MT CARMEL AP   SUNNY     84  75  74 CALM      29.99F HX  91
6HR MIN TEMP:  79; 6HR MAX TEMP:  85; 6HR PCP:  0.01;

OLNEY-NOBLE AP SUNNY     82  77  83 CALM      30.00S HX  91
PARIS          SUNNY     84  76  75 CALM      30.01R HX  93
6HR MIN TEMP:  83; 6HR MAX TEMP:  87;

PEORIA         SUNNY     86  76  71 S5        29.99R HX  96
6HR MIN TEMP:  80; 6HR MAX TEMP:  89;

PONTIAC        SUNNY     85  78  78 CALM      30.00S HX  97
RANTOUL        NOT AVBL
ROBINSON       SUNNY     83  77  81 CALM      30.00S HX  93
6HR MIN TEMP:  82; 6HR MAX TEMP:  87;

SPRINGFIELD    SUNNY     88  75  65 NE3       30.00S HX  97
6HR MIN TEMP:  83; 6HR MAX TEMP:  91;

TAYLORVILLE    MOSUNNY   83  76  80 CALM      30.01S HX  91
$$

...REGIONAL REPORTS...


CITY           SKY/WX    TMP DP  RH WIND       PRES   REMARKS
CHICAGO O`HARE MOSUNNY   88  75  65 W3        29.96F HX  97
KANKAKEE       NOT AVBL
MOLINE         MOSUNNY   87  76  69 SW5       29.97F HX  97
MOUNT STERLING SUNNY     83  77  80 CALM      30.00S HX  92
MOUNT VERNON   MOSUNNY   84  73  70 CALM      30.00R HX  91
PITTSFIELD     MOSUNNY   85  79  81 SE3       30.01S HX  97
QUINCY         MOSUNNY   87  78  74 SE6       29.99S HX 100
ROCKFORD       MOSUNNY   88  75  65 CALM      29.98F HX  97
$$


CITY           SKY/WX    TMP DP  RH WIND       PRES   REMARKS
BURLINGTON     SUNNY     85  78  80 S3        29.98F HX  96
CEDAR RAPIDS   SUNNY     85  81  88 S5        29.97F HX 100
DES MOINES     MOSUNNY   90  77  65 S8        29.95S HX 103
KIRKSVILLE     MOSUNNY   88  75  65 S5        30.00S HX  97
OTTUMWA        CLOUDY    86  77  74 S5        29.96F HX  97
ST LOUIS       PTSUNNY   85  70  60 SE5       30.01R HX  89
$$


CITY           SKY/WX    TMP DP  RH WIND       PRES   REMARKS
TERRE HAUTE    SUNNY     87  70  56 CALM      29.99R HX  92
EVANSVILLE     PTSUNNY   84  75  74 CALM      29.98F HX  92
INDIANAPOLIS   MOSUNNY   86  67  52 NW9       29.99S HX  89
LAFAYETTE      SUNNY     84  73  69 W6        29.98S HX  90
MADISON        MOSUNNY   89  75  63 CALM      29.96F HX  99
MILWAUKEE      MOSUNNY   84  70  62 E6        29.96S HX  88
$$






USA.gov is the U.S. government's official web portal to all federal, state and local government web resources and services.